| time (UTC) | temp F | wind direction | speed knots | gust knots | rain 1hr in | rain 24hr in | rain mn in | humidity % | barometer mb |
| 20260902024508 | 90 | 128 | 2.6 | 6.1 | 0.00 | 0.00 | 0.00 | 54 | 1012.4 |
| 20260902024008 | 91 | 113 | 2.6 | 6.1 | 0.00 | 0.00 | 0.00 | 53 | 1012.4 |
| 20260902023508 | 91 | 164 | 1.7 | 3.5 | 0.00 | 0.00 | 0.00 | 53 | 1012.3 |
| 20260902022507 | 91 | 103 | 0.9 | 2.6 | 0.00 | 0.00 | 0.00 | 52 | 1012.1 |
| 20260902022007 | 91 | 137 | 2.6 | 2.6 | 0.00 | 0.00 | 0.00 | 52 | 1012.0 |
| 20260902021507 | 91 | 147 | 1.7 | 2.6 | 0.00 | 0.00 | 0.00 | 51 | 1011.9 |
| 20260902020507 | 92 | 164 | 0.0 | 2.6 | 0.00 | 0.00 | 0.00 | 50 | 1011.8 |
| 20260902020007 | 92 | 111 | 0.0 | 2.6 | 0.00 | 0.00 | 0.00 | 50 | 1011.8 |
| 20260902015507 | 92 | 211 | 1.7 | 2.6 | 0.00 | 0.00 | 0.00 | 50 | 1011.6 |
| 20260902015007 | 92 | 232 | 2.6 | 2.6 | 0.00 | 0.00 | 0.00 | 49 | 1011.4 |
| 20260902014507 | 92 | 121 | 0.0 | 2.6 | 0.00 | 0.00 | 0.00 | 49 | 1011.5 |
| 20260902014007 | 93 | 135 | 2.6 | 2.6 | 0.00 | 0.00 | 0.00 | 48 | 1011.5 |
| 20260902013507 | 93 | 136 | 1.7 | 3.5 | 0.00 | 0.00 | 0.00 | 48 | 1011.5 |
| 20260902013007 | 93 | 140 | 2.6 | 3.5 | 0.00 | 0.00 | 0.00 | 48 | 1011.4 |
| 20260902012506 | 93 | 146 | 0.9 | 5.2 | 0.00 | 0.00 | 0.00 | 47 | 1011.4 |
| 20260902012006 | 94 | 113 | 2.6 | 8.7 | 0.00 | 0.00 | 0.00 | 47 | 1011.4 |
| 20260902011507 | 94 | 140 | 1.7 | 8.7 | 0.00 | 0.00 | 0.00 | 47 | 1011.4 |
| 20260902011007 | 94 | 141 | 3.5 | 6.1 | 0.00 | 0.00 | 0.00 | 46 | 1011.3 |
| 20260902010507 | 95 | 100 | 2.6 | 5.2 | 0.00 | 0.00 | 0.00 | 45 | 1011.2 |
| 20260902010006 | 95 | 153 | 2.6 | 5.2 | 0.00 | 0.00 | 0.00 | 45 | 1011.2 |
| 20260902005507 | 96 | 119 | 0.9 | 6.1 | 0.00 | 0.00 | 0.00 | 45 | 1011.1 |
| 20260902005006 | 96 | 131 | 1.7 | 7.8 | 0.00 | 0.00 | 0.00 | 44 | 1011.1 |
| 20260902004506 | 96 | 99 | 2.6 | 7.8 | 0.00 | 0.00 | 0.00 | 43 | 1011.1 |
| 20260902004006 | 96 | 183 | 3.5 | 6.1 | 0.00 | 0.00 | 0.00 | 43 | 1011.1 |
| 20260902003006 | 96 | 112 | 1.7 | 5.2 | 0.00 | 0.00 | 0.00 | 43 | 1011.1 |
| 20260902002506 | 96 | 108 | 5.2 | 5.2 | 0.00 | 0.00 | 0.00 | 43 | 1011.2 |
| 20260902002006 | 96 | 114 | 0.9 | 1.7 | 0.00 | 0.00 | 0.00 | 42 | 1011.2 |
| 20260902001506 | 96 | 119 | 0.9 | 6.1 | 0.00 | 0.00 | 0.00 | 42 | 1011.2 |
| 20260902001006 | 97 | 93 | 1.7 | 6.1 | 0.00 | 0.00 | 0.00 | 42 | 1011.3 |
| 20260902000506 | 97 | 103 | 2.6 | 5.2 | 0.00 | 0.00 | 0.00 | 42 | 1011.2 |
| 20260902000005 | 97 | 100 | 5.2 | 7.0 | 0.00 | 0.00 | 0.00 | 42 | 1011.3 |
| 20260901235506 | 97 | 91 | 2.6 | 7.0 | 0.00 | 0.00 | 0.00 | 42 | 1011.2 |
| 20260901234505 | 98 | 109 | 2.6 | 3.5 | 0.00 | 0.00 | 0.00 | 41 | 1011.2 |
| 20260901233505 | 98 | 83 | 4.3 | 9.6 | 0.00 | 0.00 | 0.00 | 40 | 1011.2 |
| 20260901233005 | 99 | 96 | 5.2 | 5.2 | 0.00 | 0.00 | 0.00 | 40 | 1011.3 |
| 20260901232535 | 99 | 98 | 1.7 | 4.3 | 0.00 | 0.00 | 0.00 | 40 | 1011.2 |
| 20260901232035 | 99 | 124 | 3.5 | 4.3 | 0.00 | 0.00 | 0.00 | 40 | 1011.1 |
| 20260901231535 | 99 | 49 | 0.9 | 6.1 | 0.00 | 0.00 | 0.00 | 39 | 1011.1 |
| 20260901231035 | 100 | 101 | 2.6 | 6.1 | 0.00 | 0.00 | 0.00 | 39 | 1011.1 |
| 20260901230535 | 100 | 105 | 0.9 | 4.3 | 0.00 | 0.00 | 0.00 | 39 | 1011.1 |
| 20260901225535 | 100 | 116 | 1.7 | 7.8 | 0.00 | 0.00 | 0.00 | 39 | 1011.1 |
| 20260901225034 | 99 | 119 | 0.9 | 6.1 | 0.00 | 0.00 | 0.00 | 40 | 1011.0 |
| 20260901224535 | 99 | 93 | 0.0 | 6.1 | 0.00 | 0.00 | 0.00 | 40 | 1011.0 |
| 20260901224034 | 99 | 100 | 0.9 | 3.5 | 0.00 | 0.00 | 0.00 | 40 | 1011.0 |
| 20260901223534 | 99 | 82 | 0.9 | 3.5 | 0.00 | 0.00 | 0.00 | 40 | 1011.1 |
| 20260901223034 | 99 | 136 | 0.0 | 2.6 | 0.00 | 0.00 | 0.00 | 40 | 1011.1 |
| 20260901222534 | 99 | 355 | 0.9 | 2.6 | 0.00 | 0.00 | 0.00 | 40 | 1011.1 |
| 20260901222034 | 99 | 86 | 0.0 | 6.1 | 0.00 | 0.00 | 0.00 | 40 | 1011.1 |
| 20260901221534 | 99 | 88 | 1.7 | 6.1 | 0.00 | 0.00 | 0.00 | 40 | 1011.2 |
| 20260901221034 | 100 | 131 | 2.6 | 6.1 | 0.00 | 0.00 | 0.00 | 39 | 1011.2 |
| 20260901220534 | 101 | 81 | 1.7 | 6.1 | 0.00 | 0.00 | 0.00 | 38 | 1011.1 |
| 20260901215534 | 101 | 129 | 3.5 | 6.1 | 0.00 | 0.00 | 0.00 | 38 | 1011.2 |
| 20260901215034 | 101 | 150 | 0.0 | 1.7 | 0.00 | 0.00 | 0.00 | 39 | 1011.1 |
| 20260901214534 | 101 | 208 | 0.9 | 5.2 | 0.00 | 0.00 | 0.00 | 39 | 1011.1 |
| 20260901214034 | 101 | 104 | 5.2 | 5.2 | 0.00 | 0.00 | 0.00 | 39 | 1011.1 |
| 20260901213533 | 100 | 111 | 1.7 | 2.6 | 0.00 | 0.00 | 0.00 | 40 | 1011.2 |
| 20260901213034 | 100 | 96 | 0.9 | 2.6 | 0.00 | 0.00 | 0.00 | 40 | 1011.2 |
| 20260901211533 | 100 | 121 | 4.3 | 7.8 | 0.00 | 0.00 | 0.00 | 39 | 1011.4 |
| 20260901211033 | 100 | 224 | 1.7 | 2.6 | 0.00 | 0.00 | 0.00 | 39 | 1011.4 |
| 20260901205533 | 101 | 116 | 3.5 | 5.2 | 0.00 | 0.00 | 0.00 | 37 | 1011.7 |
| 20260901205033 | 101 | 109 | 3.5 | 7.0 | 0.00 | 0.00 | 0.00 | 38 | 1011.8 |
| 20260901204533 | 101 | 138 | 1.7 | 7.0 | 0.00 | 0.00 | 0.00 | 39 | 1011.7 |
| 20260901204033 | 101 | 167 | 2.6 | 2.6 | 0.00 | 0.00 | 0.00 | 39 | 1011.9 |
| 20260901203503 | 101 | 76 | 1.7 | 3.5 | 0.00 | 0.00 | 0.00 | 40 | 1012.1 |
| 20260901202533 | 99 | 90 | 0.0 | 6.1 | 0.00 | 0.00 | 0.00 | 41 | 1012.1 |
| 20260901202033 | 99 | 124 | 0.9 | 6.1 | 0.00 | 0.00 | 0.00 | 41 | 1012.2 |
| 20260901201032 | 99 | 113 | 1.7 | 6.1 | 0.00 | 0.00 | 0.00 | 42 | 1012.3 |
| 20260901200533 | 99 | 162 | 4.3 | 6.1 | 0.00 | 0.00 | 0.00 | 43 | 1012.5 |
| 20260901200032 | 99 | 126 | 1.7 | 5.2 | 0.00 | 0.00 | 0.00 | 43 | 1012.5 |
| 20260901195532 | 99 | 110 | 5.2 | 5.2 | 0.00 | 0.00 | 0.00 | 43 | 1012.6 |
| 20260901195032 | 99 | 118 | 3.5 | 3.5 | 0.00 | 0.00 | 0.00 | 43 | 1012.6 |
| 20260901194532 | 98 | 132 | 0.9 | 2.6 | 0.00 | 0.00 | 0.00 | 44 | 1012.7 |
| 20260901192532 | 99 | 304 | 0.9 | 2.6 | 0.00 | 0.00 | 0.00 | 44 | 1013.0 |
| 20260901192032 | 98 | 343 | 0.9 | 1.7 | 0.00 | 0.00 | 0.00 | 46 | 1013.1 |
| 20260901191032 | 97 | 211 | 1.7 | 6.1 | 0.00 | 0.00 | 0.00 | 47 | 1013.1 |
| 20260901190031 | 97 | 138 | 0.9 | 6.1 | 0.00 | 0.00 | 0.00 | 48 | 1013.2 |
| 20260901185531 | 97 | 326 | 1.7 | 5.2 | 0.00 | 0.00 | 0.00 | 48 | 1013.3 |
| 20260901185031 | 97 | 118 | 5.2 | 5.2 | 0.00 | 0.00 | 0.00 | 49 | 1013.5 |
| 20260901184532 | 97 | 109 | 2.6 | 3.5 | 0.00 | 0.00 | 0.00 | 49 | 1013.6 |
| 20260901184032 | 96 | 355 | 0.9 | 3.5 | 0.00 | 0.00 | 0.00 | 50 | 1013.7 |
| 20260901183531 | 96 | 332 | 0.9 | 7.0 | 0.00 | 0.00 | 0.00 | 50 | 1013.9 |
| 20260901183032 | 96 | 150 | 2.6 | 7.0 | 0.00 | 0.00 | 0.00 | 51 | 1013.9 |
| 20260901182531 | 95 | 110 | 0.9 | 5.2 | 0.00 | 0.00 | 0.00 | 51 | 1014.0 |
| 20260901182032 | 96 | 86 | 4.3 | 7.0 | 0.00 | 0.00 | 0.00 | 50 | 1014.2 |
| 20260901181532 | 96 | 99 | 3.5 | 7.0 | 0.00 | 0.00 | 0.00 | 50 | 1014.2 |
| 20260901181032 | 96 | 159 | 3.5 | 4.3 | 0.00 | 0.00 | 0.00 | 50 | 1014.2 |
| 20260901180531 | 96 | 128 | 2.6 | 4.3 | 0.00 | 0.00 | 0.00 | 51 | 1014.4 |
| 20260901180031 | 96 | 121 | 4.3 | 4.3 | 0.00 | 0.00 | 0.00 | 51 | 1014.5 |
| 20260901175031 | 95 | 105 | 5.2 | 5.2 | 0.00 | 0.00 | 0.00 | 52 | 1014.6 |
| 20260901174531 | 95 | 267 | 0.0 | 4.3 | 0.00 | 0.00 | 0.00 | 52 | 1014.7 |
| 20260901174031 | 95 | 123 | 1.7 | 5.2 | 0.00 | 0.00 | 0.00 | 52 | 1014.9 |
| 20260901173531 | 95 | 75 | 0.9 | 7.0 | 0.00 | 0.00 | 0.00 | 53 | 1014.9 |
| 20260901173031 | 95 | 102 | 3.5 | 7.0 | 0.00 | 0.00 | 0.00 | 53 | 1015.0 |
| 20260901172031 | 94 | 71 | 1.7 | 5.2 | 0.00 | 0.00 | 0.00 | 54 | 1015.2 |
| 20260901171530 | 94 | 110 | 0.9 | 5.2 | 0.00 | 0.00 | 0.00 | 54 | 1015.2 |
| 20260901171030 | 94 | 94 | 3.5 | 5.2 | 0.00 | 0.00 | 0.00 | 55 | 1015.2 |
| 20260901170530 | 93 | 105 | 0.9 | 2.6 | 0.00 | 0.00 | 0.00 | 56 | 1015.3 |
| 20260901170030 | 93 | 129 | 1.7 | 1.7 | 0.00 | 0.00 | 0.00 | 56 | 1015.3 |
| 20260901165531 | 92 | 98 | 0.9 | 3.5 | 0.00 | 0.00 | 0.00 | 57 | 1015.4 |
| 20260901165030 | 92 | 106 | 1.7 | 3.5 | 0.00 | 0.00 | 0.00 | 57 | 1015.4 |
| 20260901164530 | 92 | 105 | 1.7 | 4.3 | 0.00 | 0.00 | 0.00 | 58 | 1015.4 |
| 20260901164030 | 92 | 168 | 1.7 | 4.3 | 0.00 | 0.00 | 0.00 | 58 | 1015.4 |
| 20260901163530 | 92 | 115 | 0.9 | 3.5 | 0.00 | 0.00 | 0.00 | 58 | 1015.4 |
| 20260901162530 | 91 | 77 | 1.7 | 2.6 | 0.00 | 0.00 | 0.00 | 59 | 1015.5 |
| 20260901162030 | 91 | 113 | 0.0 | 2.6 | 0.00 | 0.00 | 0.00 | 61 | 1015.5 |
| 20260901161030 | 91 | 176 | 1.7 | 3.5 | 0.00 | 0.00 | 0.00 | 63 | 1015.7 |
| 20260901160530 | 90 | 267 | 0.9 | 2.6 | 0.00 | 0.00 | 0.00 | 64 | 1015.6 |
| 20260901160030 | 90 | 99 | 0.9 | 2.6 | 0.00 | 0.00 | 0.00 | 64 | 1015.6 |
| 20260901155030 | 90 | 123 | 4.3 | 6.1 | 0.00 | 0.00 | 0.00 | 64 | 1015.7 |
| 20260901154530 | 89 | 46 | 0.0 | 1.7 | 0.00 | 0.00 | 0.00 | 66 | 1015.6 |
| 20260901153530 | 89 | 142 | 0.0 | 2.6 | 0.00 | 0.00 | 0.00 | 67 | 1015.7 |
| 20260901153030 | 88 | 107 | 0.9 | 2.6 | 0.00 | 0.00 | 0.00 | 68 | 1015.6 |
| 20260901152530 | 88 | 115 | 1.7 | 1.7 | 0.00 | 0.00 | 0.00 | 69 | 1015.5 |
| 20260901152029 | 87 | 5 | 0.0 | 2.6 | 0.00 | 0.00 | 0.00 | 69 | 1015.5 |
| 20260901151530 | 87 | 296 | 1.7 | 3.5 | 0.00 | 0.00 | 0.00 | 70 | 1015.5 |
| 20260901151029 | 87 | 245 | 1.7 | 3.5 | 0.00 | 0.00 | 0.00 | 71 | 1015.5 |
| 20260901150529 | 87 | 190 | 1.7 | 3.5 | 0.00 | 0.00 | 0.00 | 72 | 1015.6 |
| 20260901150030 | 87 | 339 | 3.5 | 3.5 | 0.00 | 0.00 | 0.00 | 72 | 1015.6 |
| 20260901145529 | 87 | 5 | 2.6 | 2.6 | 0.00 | 0.00 | 0.00 | 73 | 1015.7 |
| 20260901145030 | 87 | 227 | 1.7 | 2.6 | 0.00 | 0.00 | 0.00 | 73 | 1015.7 |
| 20260901144529 | 86 | 122 | 0.0 | 2.6 | 0.00 | 0.00 | 0.00 | 74 | 1015.6 |
| 20260901144029 | 86 | 126 | 0.0 | 2.6 | 0.00 | 0.00 | 0.00 | 74 | 1015.7 |
| 20260901143529 | 86 | 267 | 0.9 | 2.6 | 0.00 | 0.00 | 0.00 | 74 | 1015.8 |
| 20260901143029 | 85 | 335 | 0.0 | 0.0 | 0.00 | 0.00 | 0.00 | 75 | 1015.8 |
| 20260901142529 | 85 | 209 | 0.0 | 0.0 | 0.00 | 0.00 | 0.00 | 76 | 1015.8 |
| 20260901142029 | 85 | 160 | 0.0 | 0.0 | 0.00 | 0.00 | 0.00 | 76 | 1015.9 |
| 20260901141529 | 85 | 331 | 0.0 | 1.7 | 0.00 | 0.00 | 0.00 | 76 | 1015.9 |
| 20260901141029 | 84 | 302 | 0.0 | 1.7 | 0.00 | 0.00 | 0.00 | 77 | 1016.0 |
| 20260901140529 | 84 | 52 | 0.9 | 0.9 | 0.00 | 0.00 | 0.00 | 77 | 1016.0 |
| 20260901135529 | 83 | 188 | 0.0 | 2.6 | 0.00 | 0.00 | 0.00 | 78 | 1015.9 |
| 20260901135029 | 83 | 337 | 0.9 | 2.6 | 0.00 | 0.00 | 0.00 | 78 | 1015.9 |
| 20260901134529 | 83 | 282 | 0.0 | 2.6 | 0.00 | 0.00 | 0.00 | 78 | 1015.8 |
| 20260901134029 | 83 | 342 | 0.9 | 2.6 | 0.00 | 0.00 | 0.00 | 78 | 1015.7 |
| 20260901132529 | 82 | 321 | 0.0 | 1.7 | 0.00 | 0.00 | 0.00 | 79 | 1015.6 |
| 20260901132028 | 82 | 306 | 0.0 | 1.7 | 0.00 | 0.00 | 0.00 | 79 | 1015.6 |
| 20260901131528 | 82 | 336 | 0.0 | 0.0 | 0.00 | 0.00 | 0.00 | 80 | 1015.5 |
| 20260901131028 | 81 | 270 | 0.0 | 0.0 | 0.00 | 0.00 | 0.00 | 80 | 1015.5 |
| 20260901130528 | 81 | 270 | 0.0 | 0.0 | 0.00 | 0.00 | 0.00 | 80 | 1015.5 |
| 20260901130028 | 80 | 270 | 0.0 | 0.0 | 0.00 | 0.00 | 0.00 | 81 | 1015.6 |
| 20260901125528 | 80 | 270 | 0.0 | 0.0 | 0.00 | 0.00 | 0.00 | 81 | 1015.5 |
| 20260901125028 | 79 | 270 | 0.0 | 0.0 | 0.00 | 0.00 | 0.00 | 81 | 1015.4 |
| 20260901124528 | 79 | 270 | 0.0 | 0.0 | 0.00 | 0.00 | 0.00 | 81 | 1015.3 |
| 20260901124028 | 79 | 270 | 0.0 | 0.0 | 0.00 | 0.00 | 0.00 | 81 | 1015.3 |
| 20260901123528 | 79 | 270 | 0.0 | 0.0 | 0.00 | 0.00 | 0.00 | 81 | 1015.2 |
| 20260901123028 | 79 | 270 | 0.0 | 0.0 | 0.00 | 0.00 | 0.00 | 81 | 1015.2 |
| 20260901122528 | 79 | 276 | 0.0 | 0.0 | 0.00 | 0.00 | 0.00 | 81 | 1015.1 |
| 20260901122028 | 79 | 276 | 0.0 | 0.0 | 0.00 | 0.00 | 0.00 | 81 | 1015.1 |
| 20260901121527 | 79 | 285 | 0.0 | 0.0 | 0.00 | 0.00 | 0.00 | 81 | 1015.0 |
| 20260901121027 | 79 | 267 | 0.0 | 0.0 | 0.00 | 0.00 | 0.00 | 81 | 1015.0 |
| 20260901120027 | 79 | 136 | 0.0 | 0.0 | 0.00 | 0.00 | 0.00 | 80 | 1015.0 |
| 20260901115527 | 79 | 136 | 0.0 | 0.0 | 0.00 | 0.00 | 0.00 | 80 | 1015.0 |
| 20260901114527 | 79 | 136 | 0.0 | 0.0 | 0.00 | 0.00 | 0.00 | 80 | 1014.9 |
| 20260901113527 | 79 | 136 | 0.0 | 0.0 | 0.00 | 0.00 | 0.00 | 80 | 1014.9 |
| 20260901113028 | 80 | 136 | 0.0 | 0.9 | 0.00 | 0.00 | 0.00 | 80 | 1014.9 |
| 20260901112527 | 80 | 136 | 0.9 | 0.9 | 0.00 | 0.00 | 0.00 | 80 | 1014.9 |
| 20260901112027 | 80 | 136 | 0.0 | 0.0 | 0.00 | 0.00 | 0.00 | 80 | 1014.8 |
| 20260901111027 | 80 | 188 | 0.0 | 0.9 | 0.00 | 0.00 | 0.00 | 80 | 1014.8 |
| 20260901110527 | 80 | 188 | 0.0 | 0.9 | 0.00 | 0.00 | 0.00 | 80 | 1014.7 |
| 20260901110027 | 80 | 292 | 0.0 | 0.0 | 0.00 | 0.00 | 0.00 | 80 | 1014.8 |
| 20260901105527 | 80 | 292 | 0.0 | 1.7 | 0.00 | 0.00 | 0.00 | 80 | 1014.8 |
| 20260901105027 | 80 | 262 | 0.0 | 1.7 | 0.00 | 0.00 | 0.00 | 80 | 1014.8 |
| 20260901104527 | 80 | 287 | 0.9 | 0.9 | 0.00 | 0.00 | 0.00 | 80 | 1014.8 |
| 20260901103527 | 80 | 123 | 0.0 | 1.7 | 0.00 | 0.00 | 0.00 | 80 | 1014.7 |
| 20260901103027 | 80 | 254 | 0.9 | 1.7 | 0.00 | 0.00 | 0.00 | 80 | 1014.6 |
| 20260901102527 | 80 | 196 | 0.0 | 2.6 | 0.00 | 0.00 | 0.00 | 79 | 1014.5 |
| 20260901101027 | 80 | 266 | 0.0 | 0.9 | 0.00 | 0.00 | 0.00 | 79 | 1014.6 |
| 20260901100527 | 80 | 284 | 0.0 | 0.9 | 0.00 | 0.00 | 0.00 | 79 | 1014.7 |
| 20260901100027 | 80 | 89 | 0.0 | 0.9 | 0.00 | 0.00 | 0.00 | 79 | 1014.7 |
| 20260901095527 | 80 | 202 | 0.0 | 2.6 | 0.00 | 0.00 | 0.00 | 79 | 1014.7 |
| 20260901095026 | 80 | 198 | 0.0 | 2.6 | 0.00 | 0.00 | 0.00 | 79 | 1014.8 |
| 20260901094026 | 80 | 202 | 1.7 | 2.6 | 0.00 | 0.00 | 0.00 | 78 | 1014.9 |
| 20260901093526 | 80 | 178 | 0.0 | 0.0 | 0.00 | 0.00 | 0.00 | 78 | 1014.8 |
| 20260901093026 | 80 | 178 | 0.0 | 0.0 | 0.00 | 0.00 | 0.00 | 78 | 1015.0 |
| 20260901092026 | 81 | 206 | 0.0 | 0.9 | 0.00 | 0.00 | 0.00 | 77 | 1015.1 |
| 20260901091526 | 81 | 209 | 0.0 | 0.9 | 0.00 | 0.00 | 0.00 | 77 | 1015.2 |
| 20260901091026 | 81 | 208 | 0.0 | 0.9 | 0.00 | 0.00 | 0.00 | 77 | 1015.2 |
| 20260901090526 | 81 | 151 | 0.0 | 0.9 | 0.00 | 0.00 | 0.00 | 77 | 1015.1 |
| 20260901090026 | 81 | 136 | 0.0 | 0.9 | 0.00 | 0.00 | 0.00 | 76 | 1015.2 |
| 20260901085526 | 81 | 136 | 0.0 | 1.7 | 0.00 | 0.00 | 0.00 | 77 | 1015.1 |
| 20260901085026 | 81 | 137 | 0.0 | 2.6 | 0.00 | 0.00 | 0.00 | 77 | 1015.0 |
| 20260901084526 | 81 | 196 | 0.0 | 2.6 | 0.00 | 0.00 | 0.00 | 76 | 1015.0 |
| 20260901084026 | 81 | 134 | 0.9 | 2.6 | 0.00 | 0.00 | 0.00 | 76 | 1014.9 |
| 20260901083526 | 81 | 203 | 0.0 | 2.6 | 0.00 | 0.00 | 0.00 | 76 | 1014.9 |
| 20260901083026 | 81 | 221 | 0.0 | 0.0 | 0.00 | 0.00 | 0.00 | 75 | 1014.8 |
| 20260901082526 | 81 | 134 | 0.0 | 0.0 | 0.00 | 0.00 | 0.00 | 75 | 1014.9 |
| 20260901082025 | 82 | 197 | 0.0 | 0.0 | 0.00 | 0.00 | 0.00 | 75 | 1014.8 |
| 20260901081526 | 82 | 164 | 0.0 | 1.7 | 0.00 | 0.00 | 0.00 | 75 | 1014.8 |
| 20260901081026 | 82 | 192 | 0.0 | 1.7 | 0.00 | 0.00 | 0.00 | 74 | 1014.9 |
| 20260901080025 | 82 | 223 | 0.0 | 2.6 | 0.00 | 0.00 | 0.00 | 74 | 1015.0 |
| 20260901075525 | 82 | 150 | 2.6 | 2.6 | 0.00 | 0.00 | 0.00 | 74 | 1015.0 |
| 20260901075025 | 82 | 207 | 0.0 | 0.9 | 0.00 | 0.00 | 0.00 | 73 | 1014.9 |
| 20260901074525 | 82 | 123 | 0.0 | 1.7 | 0.00 | 0.00 | 0.00 | 73 | 1014.9 |
| 20260901074025 | 82 | 128 | 0.9 | 1.7 | 0.00 | 0.00 | 0.00 | 73 | 1014.9 |
| 20260901073525 | 82 | 180 | 0.0 | 0.9 | 0.00 | 0.00 | 0.00 | 72 | 1015.0 |
| 20260901073025 | 82 | 123 | 0.0 | 0.0 | 0.00 | 0.00 | 0.00 | 72 | 1014.9 |
| 20260901072525 | 82 | 194 | 0.0 | 2.6 | 0.00 | 0.00 | 0.00 | 72 | 1015.0 |
| 20260901072025 | 83 | 133 | 2.6 | 2.6 | 0.00 | 0.00 | 0.00 | 71 | 1015.0 |
| 20260901071525 | 83 | 161 | 0.0 | 0.0 | 0.00 | 0.00 | 0.00 | 71 | 1015.0 |
| 20260901071025 | 83 | 136 | 0.0 | 0.0 | 0.00 | 0.00 | 0.00 | 70 | 1014.9 |
| 20260901070525 | 83 | 136 | 0.0 | 2.6 | 0.00 | 0.00 | 0.00 | 70 | 1014.9 |
| 20260901070025 | 83 | 136 | 0.0 | 2.6 | 0.00 | 0.00 | 0.00 | 70 | 1015.0 |
| 20260901065525 | 83 | 136 | 0.0 | 2.6 | 0.00 | 0.00 | 0.00 | 70 | 1014.9 |
| 20260901065025 | 83 | 180 | 0.0 | 1.7 | 0.00 | 0.00 | 0.00 | 70 | 1014.9 |
| 20260901064525 | 83 | 194 | 0.0 | 2.6 | 0.00 | 0.00 | 0.00 | 70 | 1014.7 |
| 20260901064024 | 83 | 218 | 1.7 | 2.6 | 0.00 | 0.00 | 0.00 | 69 | 1014.7 |
| 20260901063524 | 84 | 254 | 0.0 | 1.7 | 0.00 | 0.00 | 0.00 | 69 | 1014.8 |
| 20260901063025 | 84 | 204 | 0.0 | 2.6 | 0.00 | 0.00 | 0.00 | 68 | 1014.7 |
| 20260901062524 | 84 | 101 | 2.6 | 2.6 | 0.00 | 0.00 | 0.00 | 68 | 1014.6 |
| 20260901062024 | 84 | 148 | 0.9 | 2.6 | 0.00 | 0.00 | 0.00 | 68 | 1014.6 |
| 20260901061524 | 84 | 153 | 0.9 | 5.2 | 0.00 | 0.00 | 0.00 | 67 | 1014.5 |
| 20260901061024 | 84 | 205 | 1.7 | 5.2 | 0.00 | 0.00 | 0.00 | 67 | 1014.6 |
| 20260901060524 | 85 | 236 | 0.0 | 3.5 | 0.00 | 0.00 | 0.00 | 67 | 1014.6 |
| 20260901055524 | 85 | 120 | 0.0 | 4.3 | 0.00 | 0.00 | 0.00 | 66 | 1014.6 |
| 20260901054524 | 85 | 161 | 0.9 | 5.2 | 0.00 | 0.00 | 0.00 | 66 | 1014.5 |
| 20260901054024 | 85 | 132 | 0.9 | 1.7 | 0.00 | 0.00 | 0.00 | 65 | 1014.5 |
| 20260901053524 | 86 | 198 | 0.0 | 2.6 | 0.00 | 0.00 | 0.00 | 65 | 1014.5 |
| 20260901053024 | 86 | 128 | 0.9 | 2.6 | 0.00 | 0.00 | 0.00 | 64 | 1014.4 |
| 20260901052524 | 86 | 207 | 1.7 | 2.6 | 0.00 | 0.00 | 0.00 | 64 | 1014.4 |
| 20260901052024 | 86 | 196 | 0.9 | 3.5 | 0.00 | 0.00 | 0.00 | 64 | 1014.3 |
| 20260901051524 | 86 | 198 | 3.5 | 5.2 | 0.00 | 0.00 | 0.00 | 63 | 1014.3 |
| 20260901051024 | 86 | 146 | 1.7 | 5.2 | 0.00 | 0.00 | 0.00 | 63 | 1014.2 |
| 20260901050523 | 87 | 242 | 0.9 | 2.6 | 0.00 | 0.00 | 0.00 | 62 | 1014.2 |
| 20260901045024 | 87 | 219 | 0.9 | 4.3 | 0.00 | 0.00 | 0.00 | 60 | 1014.2 |
| 20260901044524 | 87 | 111 | 3.5 | 4.3 | 0.00 | 0.00 | 0.00 | 60 | 1014.1 |
| 20260901044024 | 87 | 136 | 1.7 | 4.3 | 0.00 | 0.00 | 0.00 | 60 | 1014.1 |
| 20260901043524 | 88 | 287 | 0.9 | 3.5 | 0.00 | 0.00 | 0.00 | 59 | 1014.0 |
| 20260901043023 | 88 | 113 | 1.7 | 5.2 | 0.00 | 0.00 | 0.00 | 59 | 1014.1 |
| 20260901042524 | 88 | 150 | 1.7 | 5.2 | 0.00 | 0.00 | 0.00 | 58 | 1014.0 |
| 20260901042024 | 88 | 248 | 0.0 | 2.6 | 0.00 | 0.00 | 0.00 | 58 | 1014.0 |
| 20260901041524 | 88 | 179 | 0.9 | 2.6 | 0.00 | 0.00 | 0.00 | 57 | 1014.0 |
| 20260901041023 | 89 | 133 | 2.6 | 2.6 | 0.00 | 0.00 | 0.00 | 57 | 1014.0 |
| 20260901040023 | 89 | 209 | 1.7 | 6.1 | 0.00 | 0.00 | 0.00 | 56 | 1014.0 |
| 20260901035523 | 89 | 125 | 6.1 | 6.1 | 0.00 | 0.00 | 0.00 | 56 | 1013.8 |
| 20260901035023 | 89 | 162 | 4.3 | 6.1 | 0.00 | 0.00 | 0.00 | 55 | 1013.8 |
| 20260901034523 | 90 | 157 | 2.6 | 6.1 | 0.00 | 0.00 | 0.00 | 55 | 1013.9 |
| 20260901033523 | 90 | 151 | 1.7 | 7.8 | 0.00 | 0.00 | 0.00 | 53 | 1013.8 |
| 20260901033022 | 90 | 149 | 3.5 | 7.8 | 0.00 | 0.00 | 0.00 | 53 | 1013.8 |
| 20260901032522 | 90 | 122 | 0.9 | 4.3 | 0.00 | 0.00 | 0.00 | 52 | 1013.7 |
| 20260901032022 | 90 | 135 | 2.6 | 6.1 | 0.00 | 0.00 | 0.00 | 51 | 1013.7 |
| 20260901031522 | 90 | 175 | 1.7 | 6.1 | 0.00 | 0.00 | 0.00 | 51 | 1013.6 |
| 20260901030522 | 91 | 129 | 1.7 | 2.6 | 0.00 | 0.00 | 0.00 | 49 | 1013.5 |
| 20260901030022 | 91 | 116 | 2.6 | 7.8 | 0.00 | 0.00 | 0.00 | 48 | 1013.4 |
| 20260901025522 | 91 | 130 | 6.1 | 7.8 | 0.00 | 0.00 | 0.00 | 47 | 1013.4 |
| 20260901025022 | 91 | 210 | 0.9 | 7.8 | 0.00 | 0.00 | 0.00 | 46 | 1013.3 |